Wind_Speed
16 16 15 14 14 13 12 11 10 10 9 8 7 7 7 6 6 6 6 6 6 6 6 6 6 6 5 5 5 6 6 6 6 7 7 7 7 8 8 8 8 8 9
18 17 17 16 15 14 13 13 12 11 10 10 9 8 8 7 7 7 7 7 7 8 8 8 7 7 7 7 7 7 7 7 7 7 7 8 8 8 8 8 9 10 10
20 19 19 18 17 16 15 15 14 13 12 12 11 10 9 9 9 9 9 9 9 9 10 10 9 9 8 8 8 8 8 8 8 8 8 9 9 9 9 9 10 11 11
22 21 20 20 19 18 17 16 16 15 14 14 13 12 11 11 11 11 11 10 11 11 11 11 11 11 10 10 10 10 10 10 9 9 10 10 10 11 11 11 12 12 13
23 23 21 21 21 20 19 18 18 17 16 16 15 14 14 13 13 12 12 12 12 12 12 12 12 12 11 11 11 11 12 12 11 11 12 12 12 12 13 13 14 14 15
26 25 23 22 22 21 21 20 19 19 18 18 17 16 16 15 14 14 14 13 13 13 13 13 13 13 13 13 13 13 13 14 14 14 14 14 14 15 15 15 16 17 17
27 26 25 24 24 24 23 22 21 20 20 20 19 18 17 17 16 16 16 15 15 15 15 15 15 15 15 15 15 15 15 15 15 16 16 17 17 17 17 18 18 18 18
28 27 26 26 26 25 24 24 23 22 22 22 21 20 19 19 18 18 18 17 17 17 17 17 17 16 16 17 17 17 17 17 18 18 18 18 19 19 19 19 19 20 20
28 28 28 27 27 27 26 26 25 24 24 24 23 23 22 21 21 21 20 20 19 19 19 19 19 19 18 18 18 19 19 19 19 20 20 20 20 20 20 20 21 22 22
28 28 28 28 28 28 27 27 27 27 26 26 25 25 24 23 23 23 22 22 21 21 20 21 21 21 21 21 21 21 21 21 21 21 22 22 22 22 22 22 23 23 24
29 29 29 29 29 29 30 29 28 28 28 28 27 27 26 26 26 25 24 24 24 23 22 22 22 22 23 23 23 23 23 23 23 24 24 25 25 25 25 25 25 25 26
30 31 30 29 29 30 31 30 30 30 29 29 29 29 28 28 27 27 26 26 26 26 25 25 24 24 24 24 25 25 25 26 26 26 26 27 27 27 27 27 26 27 27
31 31 31 30 30 30 31 31 31 32 31 31 31 31 31 31 30 29 29 29 29 28 27 27 27 26 26 26 26 26 27 27 28 28 28 28 29 29 28 28 28 29 29
32 32 32 31 31 31 31 31 32 32 33 33 33 33 33 33 32 31 31 31 31 30 29 29 29 28 28 28 28 28 28 28 28 29 30 30 30 30 30 30 30 30 30
33 33 33 33 32 33 33 33 34 34 34 35 35 35 34 34 34 34 33 33 33 32 32 31 31 30 29 29 29 30 30 30 30 30 30 31 31 31 31 31 31 31 31
35 34 34 34 34 34 34 34 35 34 35 35 36 36 37 36 36 35 35 34 34 34 33 33 33 32 31 31 31 31 31 31 31 31 31 32 32 33 33 32 32 33 33
36 36 36 36 36 36 36 35 35 35 35 36 36 37 38 38 37 37 36 36 36 36 36 36 35 35 34 33 33 33 33 33 33 32 32 33 34 34 34 34 34 35 35
37 37 38 38 37 37 37 37 36 37 37 37 38 38 38 39 39 39 39 38 38 38 38 38 37 37 37 36 35 35 35 35 35 34 34 35 35 35 36 36 37 37 38
39 40 40 40 39 39 39 39 39 38 38 39 39 39 39 40 40 41 40 40 40 40 40 40 39 39 38 38 37 37 37 37 37 36 36 36 36 37 38 39 39 40 40
41 42 42 42 41 41 42 41 41 41 40 40 40 40 39 40 40 41 42 42 42 42 42 41 41 41 40 40 39 39 38 38 38 38 38 38 39 39 40 40 40 41 41
42 44 44 44 44 44 43 43 43 42 42 42 41 41 41 41 41 42 43 44 44 44 43 43 43 42 42 42 41 41 41 40 39 39 40 40 41 42 42 42 43 43 44
43 45 45 45 45 46 45 45 45 44 43 43 43 43 44 43 44 44 45 46 46 45 45 44 43 42 43 43 44 43 43 42 41 41 42 43 44 44 45 45 45 45 45
43 44 46 46 46 47 46 45 46 46 46 45 45 44 44 45 45 45 45 46 46 46 46 46 44 44 44 44 44 44 44 44 44 44 43 44 44 45 45 46 46 47 47
41 43 45 46 46 46 46 46 46 46 46 47 46 46 46 47 46 46 46 47 47 48 48 46 46 46 45 45 45 45 46 46 46 46 45 45 45 45 46 46 46 47 47
42 43 45 46 46 46 46 46 47 47 46 47 47 47 47 47 48 48 48 47 47 47 48 47 47 47 47 47 47 47 48 48 48 48 47 46 46 46 46 47 47 47 47
43 43 44 45 46 46 48 47 47 48 47 47 48 48 48 48 49 49 49 48 48 48 48 48 47 47 47 48 48 48 48 48 48 48 48 48 47 46 46 47 47 47 46
Wind_Direction
247 246 246 244 244 244 244 245 247 249 246 246 249 253 252 251 253 256 259 264 265 267 266 271 270 276 280 284 285 291 296 299 299 301 305 308 310 311 311 313 314 316 318
248 248 247 246 244 244 243 245 246 248 247 247 249 250 251 253 258 260 260 261 263 266 267 268 265 270 277 281 284 286 290 293 296 297 299 302 306 309 309 310 310 312 314
248 248 247 244 243 243 243 244 245 246 247 248 248 249 250 253 259 262 262 264 266 267 268 266 268 271 277 279 281 281 284 287 290 294 297 301 304 305 306 307 308 310 310
247 247 246 244 243 243 244 243 244 245 246 247 248 250 252 253 258 263 262 265 267 266 267 266 270 273 276 279 279 278 280 283 284 289 294 297 299 301 303 304 305 306 307
245 245 245 245 245 243 243 243 244 244 245 247 247 250 252 255 256 259 261 264 265 264 264 265 267 271 273 278 279 279 280 281 282 284 289 293 296 298 300 302 303 304 304
245 245 245 246 244 243 243 244 245 245 246 248 248 250 252 254 257 259 262 265 266 264 262 262 264 268 269 274 277 279 281 279 278 281 285 289 293 296 297 299 300 302 302
246 245 245 246 246 245 243 243 244 245 246 247 248 250 251 253 256 259 263 266 267 264 262 262 265 269 272 274 276 277 278 279 279 280 282 284 288 292 294 296 298 300 300
246 245 246 246 246 245 243 243 244 246 247 248 249 250 251 253 256 258 262 265 266 265 264 265 267 269 273 274 274 276 277 277 277 278 280 281 284 287 291 293 296 297 298
247 246 246 246 246 245 245 245 245 246 248 249 250 251 252 254 256 258 260 263 265 266 266 267 269 270 272 272 274 275 276 277 278 277 278 279 282 286 289 292 294 295 296
247 246 246 246 246 246 245 245 246 247 248 249 250 252 253 254 256 258 260 261 264 267 267 268 269 270 271 272 274 276 276 276 277 277 277 278 281 284 288 290 291 293 293
245 245 246 245 246 246 246 246 247 247 249 249 250 251 252 254 256 257 259 261 263 266 267 268 269 270 271 272 273 275 276 276 277 278 278 279 281 283 285 288 290 291 292
245 245 245 246 246 245 247 248 249 250 250 250 250 251 252 254 255 257 259 261 263 265 266 268 269 270 271 272 272 274 275 276 277 277 279 279 281 283 285 287 289 291 292
247 245 245 246 245 244 246 248 250 251 252 252 252 252 252 254 255 256 258 260 262 264 266 267 269 270 271 271 273 274 274 275 276 276 278 279 281 283 285 286 288 290 292
247 246 247 245 244 245 247 249 250 252 252 253 253 253 253 253 254 255 257 259 261 263 265 267 269 269 270 271 273 274 274 274 275 276 277 278 280 282 283 285 288 290 291
247 246 244 243 246 246 248 250 251 252 252 253 254 255 254 254 254 255 256 258 260 262 264 266 267 268 270 271 273 274 274 274 274 276 277 278 279 281 282 284 286 288 290
247 245 243 244 246 248 249 251 251 252 253 254 255 255 255 254 254 257 257 258 259 261 263 265 267 269 270 271 273 274 274 274 275 276 276 277 279 281 281 283 285 286 288
246 244 244 245 247 249 251 254 253 253 253 254 255 256 255 253 254 256 256 257 259 261 263 265 266 268 270 271 272 273 274 275 275 276 277 278 279 280 281 283 284 285 287
246 245 246 247 250 251 252 254 255 254 254 256 256 256 255 253 254 255 255 257 259 261 263 264 266 267 269 270 271 271 273 274 274 276 277 279 279 280 281 283 284 285 286
247 246 247 250 252 252 254 255 255 256 256 256 257 257 256 255 255 254 254 256 258 260 262 265 266 268 268 269 270 271 272 273 274 275 277 277 278 279 281 282 283 284 285
249 249 250 252 253 252 253 254 255 256 257 257 257 257 256 256 257 255 255 257 259 260 262 264 265 267 268 269 270 271 272 273 274 275 276 277 278 279 280 281 282 284 285
251 252 253 253 253 253 254 254 255 255 257 258 258 258 257 257 258 258 257 258 259 260 262 264 265 266 268 269 270 271 272 273 275 276 277 278 278 279 280 281 282 283 284
254 253 253 254 254 254 255 255 255 255 256 258 258 258 258 258 258 259 261 260 260 259 261 263 264 266 267 269 271 272 272 273 274 276 278 279 279 280 280 281 281 283 284
254 254 254 254 254 255 256 255 256 255 255 256 257 257 257 258 258 259 262 261 261 260 262 264 265 267 269 270 271 272 273 274 275 275 277 279 280 280 280 281 281 282 282
256 256 255 254 255 256 256 255 255 255 255 255 256 257 258 259 259 260 261 263 263 264 264 265 266 268 269 270 271 273 274 275 276 276 277 278 279 279 280 282 283 284 284
259 258 256 255 255 256 256 257 256 256 257 257 256 257 258 259 259 260 262 264 265 265 265 264 265 267 267 269 271 272 273 274 275 277 278 279 279 280 281 282 283 283 283
262 261 260 258 257 256 256 257 258 258 258 257 257 258 259 260 261 262 263 265 265 265 265 264 265 266 267 269 270 271 273 274 276 278 279 279 279 280 280 282 282 283 284
Height
5828 5829 5830 5831 5832 5834 5835 5836 5837 5838 5838 5839 5840 5841 5842 5843 5844 5844 5845 5845 5846 5846 5847 5847 5847 5848 5848 5848 5848 5849 5849 5849 5849 5849 5849 5848 5848 5848 5847 5847 5847 5847 5846
5825 5826 5827 5829 5830 5831 5832 5834 5834 5835 5836 5837 5838 5839 5840 5841 5842 5843 5843 5844 5844 5845 5845 5845 5846 5846 5847 5847 5847 5847 5847 5847 5847 5847 5847 5847 5847 5846 5846 5846 5845 5845 5844
5822 5823 5824 5825 5827 5828 5829 5831 5832 5833 5834 5835 5836 5837 5838 5839 5840 5841 5841 5842 5842 5843 5843 5843 5844 5844 5845 5845 5845 5845 5845 5846 5846 5845 5845 5845 5845 5845 5844 5844 5844 5843 5842
5818 5819 5821 5822 5823 5825 5826 5828 5829 5830 5831 5832 5833 5834 5836 5837 5838 5839 5839 5840 5840 5840 5840 5841 5842 5842 5843 5843 5843 5843 5843 5843 5844 5844 5844 5843 5843 5843 5842 5842 5842 5841 5840
5814 5815 5817 5818 5820 5821 5823 5824 5826 5827 5828 5829 5831 5832 5833 5834 5835 5836 5836 5837 5837 5837 5838 5838 5839 5840 5840 5841 5841 5841 5841 5841 5841 5841 5841 5841 5841 5841 5840 5840 5839 5839 5838
5809 5811 5813 5814 5816 5817 5819 5820 5822 5824 5825 5826 5827 5829 5830 5831 5832 5833 5834 5834 5834 5834 5835 5836 5836 5837 5838 5838 5838 5839 5839 5839 5839 5839 5839 5839 5838 5838 5838 5837 5836 5836 5835
5804 5806 5808 5810 5811 5813 5815 5817 5818 5820 5821 5823 5824 5825 5826 5828 5829 5830 5830 5831 5831 5832 5832 5833 5834 5834 5835 5836 5836 5836 5836 5835 5836 5836 5836 5835 5835 5835 5834 5834 5833 5832 5831
5799 5801 5803 5805 5806 5808 5810 5812 5814 5816 5817 5819 5820 5821 5822 5824 5825 5826 5827 5827 5828 5828 5829 5830 5831 5831 5832 5832 5832 5832 5832 5832 5832 5832 5832 5832 5832 5831 5831 5830 5830 5829 5828
5793 5795 5797 5799 5801 5803 5805 5807 5809 5811 5812 5814 5816 5817 5818 5819 5821 5822 5823 5823 5824 5825 5825 5826 5827 5827 5828 5828 5829 5829 5829 5828 5829 5829 5828 5828 5828 5827 5827 5826 5826 5825 5824
5787 5789 5791 5793 5796 5798 5800 5801 5803 5805 5807 5809 5811 5812 5813 5815 5816 5817 5818 5819 5820 5821 5821 5822 5823 5823 5824 5824 5824 5824 5825 5824 5824 5824 5824 5824 5823 5823 5823 5822 5821 5820 5819
5780 5782 5785 5787 5790 5792 5794 5795 5797 5800 5802 5803 5805 5806 5808 5809 5811 5812 5813 5814 5815 5816 5817 5817 5818 5818 5819 5819 5820 5820 5820 5820 5820 5820 5819 5819 5819 5818 5818 5817 5816 5815 5814
5773 5776 5778 5781 5783 5785 5787 5789 5791 5793 5796 5797 5799 5800 5802 5803 5805 5806 5808 5809 5810 5811 5812 5812 5813 5813 5814 5814 5814 5815 5815 5815 5815 5815 5814 5814 5813 5813 5813 5812 5811 5810 5809
5766 5769 5771 5774 5777 5779 5781 5783 5785 5787 5789 5791 5792 5794 5796 5797 5798 5800 5801 5803 5804 5805 5806 5807 5807 5808 5808 5808 5809 5809 5809 5809 5809 5809 5809 5808 5808 5807 5806 5806 5805 5804 5803
5759 5762 5764 5767 5770 5773 5775 5776 5778 5780 5782 5784 5785 5787 5789 5790 5792 5793 5795 5796 5798 5799 5800 5800 5801 5801 5802 5802 5802 5803 5803 5803 5803 5802 5802 5802 5801 5801 5800 5799 5798 5797 5795
5751 5754 5757 5760 5763 5766 5768 5769 5771 5773 5775 5777 5778 5779 5781 5783 5784 5786 5787 5789 5791 5792 5793 5793 5794 5794 5795 5795 5796 5796 5796 5796 5796 5796 5795 5795 5794 5794 5793 5792 5791 5790 5788
5744 5747 5750 5753 5756 5758 5761 5762 5764 5765 5767 5769 5770 5771 5773 5775 5776 5778 5780 5781 5783 5784 5785 5786 5787 5787 5788 5788 5788 5789 5789 5789 5789 5788 5788 5788 5787 5786 5785 5784 5783 5782 5781
5736 5739 5742 5745 5748 5751 5753 5754 5756 5757 5759 5760 5761 5762 5764 5766 5768 5770 5772 5773 5775 5776 5777 5778 5779 5780 5780 5781 5781 5781 5781 5781 5781 5781 5780 5780 5779 5778 5777 5776 5775 5774 5772
5728 5731 5734 5737 5740 5742 5745 5746 5748 5749 5751 5752 5753 5753 5755 5757 5760 5761 5763 5765 5766 5768 5769 5770 5771 5771 5772 5773 5773 5773 5773 5773 5773 5772 5772 5771 5771 5770 5769 5768 5767 5765 5764
5720 5723 5725 5728 5731 5733 5735 5737 5739 5740 5742 5743 5744 5745 5746 5748 5750 5752 5754 5756 5758 5759 5760 5761 5762 5763 5763 5764 5764 5764 5764 5764 5764 5764 5763 5762 5762 5761 5760 5759 5757 5756 5754
5712 5714 5717 5720 5722 5724 5726 5728 5729 5731 5733 5734 5735 5736 5738 5740 5741 5743 5745 5746 5748 5749 5751 5751 5752 5753 5754 5754 5755 5755 5755 5755 5755 5754 5753 5753 5752 5751 5750 5749 5747 5746 5744
5703 5705 5708 5710 5712 5714 5716 5718 5720 5721 5723 5725 5726 5727 5729 5730 5732 5733 5735 5737 5738 5740 5741 5741 5742 5743 5744 5744 5745 5745 5746 5745 5745 5744 5743 5742 5741 5740 5739 5738 5736 5735 5733
5694 5696 5698 5700 5701 5704 5705 5707 5709 5711 5713 5715 5716 5717 5719 5720 5722 5723 5725 5726 5727 5729 5730 5731 5732 5733 5733 5733 5734 5734 5735 5736 5735 5734 5733 5732 5730 5729 5727 5726 5724 5723 5722
5685 5686 5687 5689 5691 5693 5694 5696 5698 5700 5702 5704 5706 5707 5709 5711 5712 5713 5714 5715 5716 5718 5719 5720 5721 5721 5722 5722 5722 5722 5723 5723 5724 5724 5722 5720 5718 5717 5715 5714 5712 5711 5709
5674 5675 5676 5678 5679 5681 5683 5685 5687 5689 5691 5693 5695 5697 5698 5700 5701 5702 5703 5704 5705 5706 5707 5708 5709 5709 5710 5711 5710 5710 5710 5709 5709 5710 5711 5709 5707 5705 5704 5702 5700 5698 5696
5663 5664 5665 5666 5668 5670 5672 5673 5675 5677 5679 5682 5683 5685 5686 5688 5689 5690 5691 5692 5693 5694 5695 5696 5697 5697 5698 5699 5699 5698 5698 5697 5696 5696 5697 5697 5695 5694 5692 5690 5688 5686 5683
5652 5653 5654 5655 5656 5657 5659 5661 5663 5665 5668 5670 5672 5673 5675 5676 5677 5678 5680 5680 5681 5682 5683 5684 5684 5685 5686 5686 5686 5686 5685 5685 5684 5683 5683 5683 5683 5682 5679 5677 5675 5673 5671